This is the latest recevied weather packets stored in our database for station/object DELTON-WX. If no packets are shown the sender has not sent any weather packets the latest 10 day(s).
| Time | Temp. | Humidity | Pressure | Rain* | Wind** | Luminosity | Snow |
|---|---|---|---|---|---|---|---|
| 1777819546 | 11.67° C | 58% | 979.6 hPa | 0 mm | - | - | - |
| 1777818668 | 11.11° C | 57% | 979.8 hPa | 0 mm | - | - | - |
| 1777817747 | 10.56° C | 57% | 979.8 hPa | 0 mm | - | - | - |
| 1777816885 | 10° C | 57% | 979.8 hPa | 0 mm | - | - | - |
| 1777815946 | 9.44° C | 61% | 980.3 hPa | 0 mm | - | - | - |
| 1777815062 | 8.89° C | 61% | 980.3 hPa | 0 mm | - | - | - |
| 1777814147 | 6.67° C | 61% | 980.2 hPa | 0 mm | - | - | - |
| 1777813279 | 7.22° C | 61% | 980.2 hPa | 0 mm | - | - | - |
| 1777812346 | 6.67° C | 64% | 979.3 hPa | 0 mm | - | - | - |
| 1777811467 | 6.11° C | 65% | 980.5 hPa | 0 mm | - | - | - |
| 1777810547 | 5.56° C | 65% | 980.4 hPa | 0 mm | - | - | - |
| 1777809686 | 5° C | 65% | 980.4 hPa | 0 mm | - | - | - |
| 1777808747 | 4.44° C | 66% | 980 hPa | 0 mm | - | - | - |
| 1777807864 | 3.89° C | 67% | 979.4 hPa | 0 mm | - | - | - |
| 1777806947 | 3.89° C | 67% | 979.4 hPa | 0 mm | - | - | - |
| 1777806079 | 3.33° C | 67% | 979.4 hPa | 0 mm | - | - | - |
| 1777805146 | 2.78° C | 68% | 979.3 hPa | 0 mm | - | - | - |
| 1777804262 | 2.78° C | 69% | 979.5 hPa | 0 mm | - | - | - |
| 1777803347 | 2.78° C | 69% | 979.4 hPa | 0 mm | - | - | - |
| 1777802480 | 2.22° C | 69% | 979.4 hPa | 0 mm | - | - | - |
| 1777801546 | 2.22° C | 70% | 979.5 hPa | 0 mm | - | - | - |
| 1777800666 | 2.22° C | 72% | 979.6 hPa | 0 mm | - | - | - |
| 1777799746 | 1.67° C | 72% | 979.5 hPa | 0 mm | - | - | - |
| 1777798875 | 1.67° C | 72% | 979.5 hPa | 0 mm | - | - | - |
| 1777797946 | 1.67° C | 67% | 979.7 hPa | 0 mm | - | - | - |
* Rain latest hour (hover to see other rain measurements)
** Current wind speed in m/s (hover to see current wind gust speed)